map of DJE home
Great Circle Mapper logo
DJE - Airport
Location
City:  Djerba, Tunisia
Near (Alt.):Jerba
Name:Zarzis International Airport
ICAO / IATA:DTTJ / DJE

Details
Type:Airport (Aerodrome, Airfield)
Use:Public/Civil, International (customs port of entry)
Latitude:3352'32"N (33.875556)
Longitude:1046'38"E (10.777222)
Elevation:19 ft (6 m)
Runways:1
Longest:10171 × 148 ft (3100 × 45 m), paved

Time
Time Zone:UTC+1 (DST+2)

Weather
METAR:DTTJ 301800Z 07007KT 8000 FEW020 22/13 Q1020 NOSIG
TAF:DTTJ 300500Z 3006/3106 06012KT 9999 FEW016
TEMPO 3006/3016 VRB25G35KT 3000 TS SHRA FEW026CB PROB30
TEMPO 3103/3106 VRB25KT 6000 -TSRA SCT020CB

Related Locations
Nearby:
Farthest:GIS: 11655 mi / 18756 km
Gisborne, NZ

Find:

   beyond  
but within

Other Information
Maps:
NOTAMs:
Links:
Sources:

  
flag of Tunisia   

Sectional Chart

Flight Planning
at skyvector.com

Satellite Image

Google Maps Satellite View

 

Copyright © 2004-2014 Karl L. Swartz. All rights reserved.
The Great Circle Mapper name and logo are trademarks of the Great Circle Mapper.
All other trademarks mentioned herein belong to their respective owners.
Please see credits for attibutions and further copyright information.

  Follow gcmap on Facebook Follow gcmap on Twitter

hCard Microformat

Geo Microformat